#timestamp,LO_Frequency,Hit,StdDev 
1512590415.4,286047020.3,Y
1512590435.3,286047002.4,P
1512590455.1,286047002.4,N
1512590475.8,286047008.5,N
1512590495.7,286047006.8,N
1512590515.5,286047006.2,N
1512590535.3,286047006.1,N
1512590555.2,286047007.1,N
1512590575.9,286047009.1,N
1512590595.7,286047005.5,N
1512590615.6,286047003.8,N
1512590635.4,286047006.5,N
1512590655.2,286047011.2,Y
1512590675.1,286047003.5,P
1512590676.0,286047003.5,N
1512590695.8,286047005.4,P
1512590715.6,286047000.1,N
1512590735.5,286047000.1,N
1512590755.3,286046993.7,N
1512590775.1,286046991.7,N
1512590795.8,286046999.9,N
1512590815.7,286047005.6,N
1512590835.5,286047003.4,N
1512590855.3,286047004.0,N
1512590875.2,286047007.4,N
1512590895.9,286047003.3,N
1512590915.7,286047000.5,N
1512590935.6,286046997.4,N
1512590955.4,286046995.0,N
1512590975.2,286046995.7,N
1512590995.1,286046990.7,N
1512590996.0,286046990.7,N
1512591015.8,286046990.4,N
1512591035.6,286046995.0,N
1512591055.4,286046998.0,N
1512591075.3,286046991.9,N
1512591095.1,286046993.8,N
1512591115.8,286046991.9,N
1512591135.7,286046995.7,N
1512591155.5,286046999.1,N
1512591175.3,286047002.5,N
1512591195.2,286047002.3,N
1512591215.9,286047001.3,N
1512591235.7,286047004.8,N
1512591255.6,286047006.1,N
1512591275.4,286047006.7,N
1512591295.2,286047006.4,N
1512591315.0,286047004.7,N
1512591316.0,286047004.7,N
1512591335.8,286047000.0,N
1512591355.6,286047002.8,N
1512591375.4,286046996.5,N
1512591395.3,286046998.9,N
1512591415.1,286047000.6,N
1512591435.8,286046999.1,N
1512591455.7,286046995.3,N
1512591475.5,286046999.6,N
1512591495.3,286046998.9,N
1512591515.2,286046998.4,N
1512591535.9,286046999.3,N
1512591555.7,286046998.0,N
1512591575.6,286046994.0,N
1512591595.4,286046992.1,N
1512591615.2,286046994.4,N
1512591635.1,286046992.6,N
1512591636.0,286046992.6,N
1512591655.8,286046993.8,N
1512591675.6,286046995.0,N
1512591695.5,286046995.6,N
1512591715.3,286046996.1,N
1512591735.1,286046996.4,N
1512591755.8,286046994.9,N
1512591775.7,286046997.9,N
1512591795.5,286046997.9,N
1512591815.3,286046997.4,N
1512591835.2,286046998.7,N
1512591855.9,286046999.8,N
1512591875.7,286046998.2,N
1512591895.6,286047003.6,N
1512591915.4,286047001.5,N
1512591935.2,286047002.1,N
1512591955.1,286047002.4,N
1512591956.0,286047002.4,N
1512591975.8,286047002.7,N
1512591995.6,286047002.2,N
1512592015.5,286047005.2,N
1512592035.3,286047007.4,N
1512592055.1,286047007.6,N
1512592075.8,286047006.8,N
1512592095.7,286047007.1,N
1512592115.5,286047006.1,N
1512592135.3,286047004.3,N
1512592155.2,286047003.6,N
1512592175.9,286047006.1,N
1512592195.7,286047006.1,N
1512592215.6,286047005.6,N
1512592235.4,286047003.5,N
1512592255.2,286047006.2,N
1512592275.1,286047013.2,Y
1512592276.0,286047013.2,P
1512592295.8,286047011.0,N
1512592315.6,286047013.0,N
1512592335.5,286047014.1,Y
1512592355.3,286047006.7,P
1512592375.1,286047007.6,P
1512592395.9,286047005.3,P
1512592415.7,286047000.7,N
1512592435.5,286046998.2,N
1512592455.4,286046999.8,N
1512592475.2,286047001.1,N
1512592495.0,286046998.5,N
1512592495.9,286046998.5,N
1512592515.8,286046999.1,N
1512592535.6,286046999.1,N
1512592555.4,286046999.6,N
1512592575.2,286046997.1,N
1512592595.1,286046998.9,N
1512592596.0,286046998.9,N
1512592615.8,286046997.9,N
1512592635.6,286046999.0,N
1512592655.5,286046994.9,N
1512592675.3,286046989.6,N
1512592695.1,286046988.0,N
1512592715.9,286046988.2,N
1512592735.7,286046985.3,N
1512592755.5,286046988.9,N
1512592775.4,286046988.6,N
1512592795.2,286046990.5,N
1512592815.0,286046987.4,N
1512592815.9,286046987.4,N
1512592835.8,286046989.1,N
1512592855.6,286046991.5,N
1512592875.4,286046988.6,N
1512592895.2,286046983.8,N
1512592915.1,286046980.1,Y
1512592916.0,286046980.1,P
1512592935.8,286046981.0,N
1512592955.7,286046978.5,P
1512592975.5,286046979.6,Y
1512592995.3,286046993.3,P
1512593015.2,286046992.1,N
1512593035.9,286046993.9,N
1512593055.7,286046994.6,N
1512593075.6,286046994.2,N
1512593095.4,286046994.0,N
1512593115.2,286046993.7,N
1512593135.0,286046995.4,N
1512593136.0,286046995.4,N
1512593155.8,286046998.5,N
1512593175.6,286047006.0,N
1512593195.4,286047004.1,N
1512593215.3,286047004.1,N
1512593235.1,286047002.0,N
1512593255.8,286047000.5,N
1512593275.7,286047003.9,N
1512593295.5,286047005.2,N
1512593315.3,286047005.8,N
1512593335.2,286047003.0,N
1512593355.9,286047007.7,N
1512593375.7,286047009.0,N
1512593395.6,286047005.8,N
1512593415.4,286047002.9,N
1512593435.2,286047010.8,N
1512593455.0,286047007.5,N
1512593455.9,286047007.5,N
1512593475.8,286047006.3,N
1512593495.6,286047005.2,N
1512593515.4,286047005.2,N
1512593535.3,286047004.9,N
1512593555.1,286047008.4,N
1512593575.8,286047008.0,N
1512593595.7,286047011.5,N
1512593615.5,286047014.7,N
1512593635.3,286047015.0,N
1512593655.2,286047015.3,N
1512593675.9,286047014.6,N
1512593695.7,286047016.0,Y
1512593715.6,286047012.2,P
1512593735.4,286047010.1,P
1512593755.2,286047006.3,N
1512593775.0,286047004.7,N
1512593776.0,286047004.7,N
1512593795.8,286047009.0,Y
1512593815.6,286047001.6,P
1512593835.5,286047003.3,N
1512593855.3,286047007.9,P
1512593875.1,286047010.0,Y
1512593895.9,286047001.3,P
1512593915.7,286047001.5,N
1512593935.5,286047003.2,N
1512593955.3,286047003.3,N
1512593975.2,286047007.6,Y
1512593995.0,286047007.2,P
1512593995.9,286047007.2,P
